Location: Newark
(43.4306°N, 0.3089°E)
Time: 18:11:41
(UTC+00:00)

S-56A Canister/Altair - Pass Details

Date: 20 August 2019
Orbit: 633 x 2499 km, 38.9° (Epoch: 14 September)

Event Time Altitude Azimuth Distance (km) Brightness Sun altitude
Rises 23:12:15 0° 255° (WSW) 2,933 - -33.1°
Reaches altitude 10° 23:14:33 10° 250° (WSW) 2,008 - -33.2°
Maximum altitude 23:18:49 49° 175° (S) 855 - -33.4°
Drops below altitude 10° 23:23:46 10° 101° (E) 2,325 - -33.6°
Sets 23:26:37 0° 96° (E) 3,457 - -33.7°
